Miscellaneous Local Product
Issued by NWS Hastings, NE

Home | Current Version | Previous Version | Graphics & Text | Print | Product List | Glossary On
Versions: 1 2 3 4 5 6 7 8 9 10 11 12 13 14 15 16 17 18 19 20 21 22 23 24 25 26 27 28 29 30 31 32 33 34 35 36 37 38 39 40 41 42 43 44 45 46 47 48 49 50
000
AXUS43 KGID 272102
MISGRI

GID CWA HOURLY WEATHER ROUNDUP
NATIONAL WEATHER SERVICE HASTINGS NE
300 PM CST SAT DEC 27 2014

NOTE: "FAIR" INDICATES FEW OR NO CLOUDS BELOW 12,000 FEET WITH NO
SIGNIFICANT WEATHER AND/OR OBSTRUCTIONS TO VISIBILITY.

...SOUTH CENTRAL NEBRASKA...

CITY           SKY/WX    TMP DP  RH WIND       PRES   REMARKS
GRAND ISLAND   SUNNY     25  15  66 W9        30.21F WCI  15
HASTINGS       SUNNY     25  15  66 W10       30.20S WCI  15
KEARNEY        SUNNY     25  16  68 W8        30.19F WCI  16
ORD            SUNNY     24  16  71 W7        30.16F WCI  16
YORK           SUNNY     25  18  74 NW8       30.21F WCI  16
AURORA         SUNNY     26  17  69 NW6       30.21S WCI  20
LEXINGTON      SUNNY     27  18  71 W7        30.18F WCI  19
HOLDREGE       SUNNY     26  17  68 W7        30.19F WCI  18
HEBRON         SUNNY     28  18  64 NW10G16   30.24S WCI  19

...NEBRASKA PANHANDLE...

CITY           SKY/WX    TMP DP  RH WIND       PRES   REMARKS
CHADRON        SUNNY     25  13  60 W8        30.08F WCI  16
ALLIANCE       SUNNY     20  11  68 W15       30.06F WCI   6
SCOTTSBLUFF    SUNNY     17   9  70 NW7       30.08F WCI   8
SIDNEY         SUNNY     18   9  68 SW9       30.10F WCI   7

...WESTERN AND NORTH CENTRAL NEBRASKA...

CITY           SKY/WX    TMP DP  RH WIND       PRES   REMARKS
VALENTINE      SUNNY     23  14  68 SW8       30.10F WCI  14
AINSWORTH      SUNNY     23  15  71 W7        30.11S WCI  15
ONEILL         SUNNY     23  18  80 SW5       30.14F WCI  17
BROKEN BOW     SUNNY     24  15  68 W8        30.15F WCI  15
IMPERIAL       SUNNY     27  14  58 W9        30.16S WCI  18
NORTH PLATTE   SUNNY     22  13  68 W8        30.15F WCI  12
MCCOOK         SUNNY     25  15  66 W8        30.20S WCI  16

...EASTERN NEBRASKA...

CITY           SKY/WX    TMP DP  RH WIND       PRES   REMARKS
NORFOLK        SUNNY     22  14  71 W6        30.18S WCI  14
SO SIOUX CITY  SUNNY     22  12  65 W7        30.20F WCI  13
TEKAMAH        SUNNY     24  14  65 W8        30.23S WCI  15
COLUMBUS       SUNNY     23  10  58 W8        30.22F WCI  14
ALBION         SUNNY     27  15  61 NW9       30.18S WCI  17
OMAHA EPPLEY   MOSUNNY   27  17  66 W8        30.24S WCI  19
OFFUTT AFB     SUNNY     28  18  66 NW8       30.22R WCI  20
MILLARD        SUNNY     27  17  66 NW9       30.23S WCI  17
LINCOLN        SUNNY     28  18  66 NW9       30.25S WCI  19
NEBRASKA CITY  MOSUNNY   29  18  65 W8        30.22S WCI  21
BEATRICE       SUNNY     28  19  67 NW12      30.24R WCI  18
FALLS CITY     MOSUNNY   30  19  63 NW10G18   30.24R WCI  21

...NORTHERN KANSAS...

CITY           SKY/WX    TMP DP  RH WIND       PRES   REMARKS
GOODLAND       SUNNY     27  16  63 NW10      30.16F WCI  17
HILL CITY      SUNNY     28  17  63 NW9       30.24S WCI  19
NORTON         CLEAR     28  16  59 W10       30.21S WCI  19
PHILLIPSBURG   SUNNY     30  19  64 W10       30.25R WCI  21
BELOIT         SUNNY     30  18  59 NW10      30.26S WCI  21
HAYS           SUNNY     30  12  47 NW9       30.25S WCI  22
RUSSELL        SUNNY     30  18  60 NW7       30.25S WCI  23
CONCORDIA      SUNNY     30  18  60 NW9       30.25R WCI  22
SALINA         SUNNY     33  16  49 NW13      30.27F WCI  24
TOPEKA         SUNNY     36  19  50 W9G21     30.25R WCI  29



USA.gov is the U.S. government's official web portal to all federal, state and local government web resources and services.